Location: Brompton
(51.4000°N, 0.5333°E)
Time: 02:22:34
(UTC+00:00)

ERBS - Pass Details

Date: 11 May 2021
Orbit: 400 x 417 km, 57.0° (Epoch: 13 June)

Event Time Altitude Azimuth Distance (km) Brightness Sun altitude
Rises 21:34:52 0° 297° (WNW) 2,348 7.2 -14.1°
Reaches altitude 10° 21:37:02 10° 305° (NW) 1,488 6.2 -14.3°
Maximum altitude 21:40:12 40° 17° (NNE) 628 3.4 -14.6°
Enters shadow 21:42:59 13° 86° (E) 1,343 4.5 -14.8°
